{"data":{"norad_id":62971,"epoch":"2026-09-22T21:26:41.372160Z","epoch_age_seconds":108895,"freshness":"FRESH","line1":"1 62971U 25030A   26265.89353440 -.00000104  00000+0  42309-4 0  9999","line2":"2 62971  49.9997 245.3722 0000544  60.2428 299.8498 13.29327608 78852","mean_motion":13.29327608,"eccentricity":5.44e-5,"inclination_deg":49.9997,"raan_deg":245.3722,"arg_perigee_deg":60.2428,"mean_anomaly_deg":299.8498,"bstar":4.2309e-5,"rev_number":7885,"period_min":108.32544147387,"perigee_km":1148.8910089509,"apogee_km":1149.709994151,"semimajor_km":7527.437501551,"source":"CELESTRAK","updated_at":"2026-09-23T09:00:21.734975Z"}}